TimePST,TemperatureF,Dew PointF,Humidity,Sea Level PressureIn,VisibilityMPH,Wind Direction,Wind SpeedMPH,Gust SpeedMPH,PrecipitationIn,Events,Conditions,WindDirDegrees,DateUTC
12:15 AM,42.8,6.8,23,30.28,10.0,Calm,Calm,-,N/A,,Clear,0,2013-12-31 08:15:00
12:35 AM,44.6,8.6,23,30.28,10.0,WSW,3.5,-,N/A,,Clear,250,2013-12-31 08:35:00
12:55 AM,44.6,6.8,21,30.27,10.0,Calm,Calm,-,N/A,,Clear,0,2013-12-31 08:55:00
1:15 AM,42.8,8.6,25,30.27,10.0,NNW,6.9,-,N/A,,Clear,330,2013-12-31 09:15:00
1:35 AM,41.0,8.6,26,30.27,10.0,Calm,Calm,-,N/A,,Clear,0,2013-12-31 09:35:00
1:55 AM,41.0,8.6,26,30.26,10.0,NNW,4.6,-,N/A,,Clear,330,2013-12-31 09:55:00
2:15 AM,41.0,8.6,26,30.26,10.0,Calm,Calm,-,N/A,,Clear,0,2013-12-31 10:15:00
2:35 AM,41.0,6.8,24,30.25,10.0,Calm,Calm,-,N/A,,Clear,0,2013-12-31 10:35:00
2:55 AM,32.0,10.4,41,30.25,9.0,ESE,5.8,-,N/A,,Clear,120,2013-12-31 10:55:00
3:15 AM,32.0,10.4,41,30.25,7.0,Calm,Calm,-,N/A,,Clear,0,2013-12-31 11:15:00
3:35 AM,32.0,8.6,38,30.24,10.0,SE,4.6,-,N/A,,Clear,140,2013-12-31 11:35:00
3:55 AM,32.0,8.6,38,30.24,7.0,SE,6.9,-,N/A,,Clear,130,2013-12-31 11:55:00
4:15 AM,32.0,8.6,38,30.24,10.0,ESE,3.5,-,N/A,,Clear,110,2013-12-31 12:15:00
4:35 AM,32.0,10.4,41,30.24,10.0,East,3.5,-,N/A,,Clear,80,2013-12-31 12:35:00
4:55 AM,32.0,10.4,41,30.24,10.0,Calm,Calm,-,N/A,,Clear,0,2013-12-31 12:55:00
5:15 AM,28.4,10.4,47,30.24,10.0,SE,3.5,-,N/A,,Clear,140,2013-12-31 13:15:00
5:35 AM,28.4,10.4,47,30.25,8.0,Calm,Calm,-,N/A,,Clear,0,2013-12-31 13:35:00
5:55 AM,30.2,10.4,44,30.25,10.0,Calm,Calm,-,N/A,,Clear,0,2013-12-31 13:55:00
6:15 AM,28.4,10.4,47,30.25,8.0,SE,8.1,-,N/A,,Clear,130,2013-12-31 14:15:00
6:35 AM,32.0,8.6,38,30.25,4.0,Calm,Calm,-,N/A,,Haze,0,2013-12-31 14:35:00
6:55 AM,32.0,10.4,41,30.25,10.0,SE,5.8,-,N/A,,Clear,130,2013-12-31 14:55:00
7:15 AM,32.0,10.4,41,30.26,10.0,ENE,3.5,-,N/A,,Clear,60,2013-12-31 15:15:00
7:35 AM,32.0,12.2,44,30.26,9.0,Calm,Calm,-,N/A,,Clear,0,2013-12-31 15:35:00
7:55 AM,33.8,12.2,41,30.26,9.0,Calm,Calm,-,N/A,,Clear,0,2013-12-31 15:55:00
8:15 AM,37.4,12.2,36,30.27,9.0,Calm,Calm,-,N/A,,Clear,0,2013-12-31 16:15:00
8:35 AM,42.8,10.4,27,30.27,10.0,Calm,Calm,-,N/A,,Clear,0,2013-12-31 16:35:00
8:55 AM,46.4,10.4,23,30.27,10.0,Calm,Calm,-,N/A,,Clear,0,2013-12-31 16:55:00
9:15 AM,53.6,12.2,19,30.27,8.0,WNW,6.9,-,N/A,,Clear,300,2013-12-31 17:15:00
9:35 AM,55.4,8.6,15,30.27,10.0,NW,10.4,-,N/A,,Clear,310,2013-12-31 17:35:00
9:55 AM,59.0,6.8,13,30.26,8.0,NW,9.2,-,N/A,,Clear,310,2013-12-31 17:55:00
10:15 AM,59.0,6.8,13,30.26,9.0,NW,10.4,-,N/A,,Clear,310,2013-12-31 18:15:00
10:35 AM,60.8,6.8,12,30.25,10.0,NNW,13.8,-,N/A,,Clear,330,2013-12-31 18:35:00
10:55 AM,60.8,8.6,13,30.25,10.0,NW,15.0,-,N/A,,Clear,320,2013-12-31 18:55:00
11:15 AM,60.8,8.6,13,30.24,8.0,NW,15.0,18.4,N/A,,Clear,310,2013-12-31 19:15:00
11:35 AM,59.0,8.6,14,30.23,10.0,NW,12.7,-,N/A,,Clear,310,2013-12-31 19:35:00
11:55 AM,60.8,8.6,13,30.22,9.0,NW,15.0,19.6,N/A,,Clear,320,2013-12-31 19:55:00
12:15 PM,60.8,8.6,13,30.21,8.0,NW,15.0,20.7,N/A,,Clear,320,2013-12-31 20:15:00
12:35 PM,60.8,8.6,13,30.21,9.0,NW,17.3,21.9,N/A,,Clear,310,2013-12-31 20:35:00
12:55 PM,59.0,8.6,14,30.20,7.0,NW,18.4,-,N/A,,Clear,310,2013-12-31 20:55:00
1:15 PM,59.0,10.4,15,30.19,8.0,NW,17.3,-,N/A,,Clear,310,2013-12-31 21:15:00
1:35 PM,59.0,10.4,15,30.19,9.0,NW,17.3,-,N/A,,Clear,320,2013-12-31 21:35:00
1:55 PM,57.2,10.4,16,30.18,8.0,NW,17.3,-,N/A,,Clear,310,2013-12-31 21:55:00
2:15 PM,57.2,10.4,16,30.18,9.0,NW,16.1,-,N/A,,Clear,320,2013-12-31 22:15:00
2:35 PM,57.2,10.4,16,30.18,9.0,NW,13.8,-,N/A,,Clear,320,2013-12-31 22:35:00
2:55 PM,57.2,10.4,16,30.18,9.0,NW,15.0,-,N/A,,Clear,320,2013-12-31 22:55:00
3:15 PM,55.4,10.4,17,30.18,9.0,NW,15.0,-,N/A,,Clear,320,2013-12-31 23:15:00
3:35 PM,55.4,10.4,17,30.18,9.0,NW,15.0,-,N/A,,Clear,310,2013-12-31 23:35:00
3:55 PM,55.4,10.4,17,30.18,9.0,NW,13.8,-,N/A,,Clear,310,2013-12-31 23:55:00
4:15 PM,53.6,10.4,18,30.18,8.0,NW,12.7,17.3,N/A,,Clear,310,2014-01-01 00:15:00
4:35 PM,50.0,10.4,20,30.18,8.0,NW,10.4,-,N/A,,Clear,310,2014-01-01 00:35:00
4:55 PM,48.2,10.4,22,30.18,8.0,West,3.5,-,N/A,,Clear,280,2014-01-01 00:55:00
5:15 PM,48.2,14.0,25,30.19,8.0,Calm,Calm,-,N/A,,Clear,0,2014-01-01 01:15:00
5:35 PM,44.6,14.0,29,30.19,9.0,WSW,5.8,-,N/A,,Clear,240,2014-01-01 01:35:00
5:55 PM,46.4,14.0,27,30.19,8.0,WNW,3.5,-,N/A,,Clear,290,2014-01-01 01:55:00
6:15 PM,46.4,12.2,25,30.19,9.0,North,4.6,-,N/A,,Clear,350,2014-01-01 02:15:00
6:35 PM,46.4,10.4,23,30.19,10.0,NW,4.6,-,N/A,,Clear,320,2014-01-01 02:35:00
6:55 PM,44.6,10.4,25,30.19,10.0,WSW,4.6,-,N/A,,Clear,250,2014-01-01 02:55:00
7:15 PM,44.6,10.4,25,30.19,10.0,West,4.6,-,N/A,,Clear,270,2014-01-01 03:15:00
7:35 PM,46.4,10.4,23,30.19,10.0,NW,3.5,-,N/A,,Clear,310,2014-01-01 03:35:00
7:55 PM,44.6,10.4,25,30.19,10.0,NNW,3.5,-,N/A,,Clear,330,2014-01-01 03:55:00
8:15 PM,37.4,10.4,33,30.20,10.0,SE,8.1,-,N/A,,Clear,140,2014-01-01 04:15:00
8:35 PM,37.4,10.4,33,30.21,10.0,SE,5.8,-,N/A,,Clear,130,2014-01-01 04:35:00
8:55 PM,37.4,10.4,33,30.21,10.0,NE,5.8,-,N/A,,Clear,40,2014-01-01 04:55:00
9:15 PM,33.8,10.4,38,30.21,10.0,ESE,3.5,-,N/A,,Clear,120,2014-01-01 05:15:00
9:35 PM,35.6,10.4,35,30.22,10.0,SE,6.9,-,N/A,,Clear,130,2014-01-01 05:35:00
9:55 PM,35.6,8.6,33,30.23,10.0,Calm,Calm,-,N/A,,Clear,0,2014-01-01 05:55:00
10:15 PM,33.8,8.6,35,30.23,10.0,Calm,Calm,-,N/A,,Clear,0,2014-01-01 06:15:00
10:35 PM,32.0,10.4,41,30.23,10.0,Calm,Calm,-,N/A,,Clear,0,2014-01-01 06:35:00
10:55 PM,33.8,8.6,35,30.23,10.0,SE,5.8,-,N/A,,Clear,140,2014-01-01 06:55:00
11:15 PM,32.0,8.6,38,30.22,10.0,Calm,Calm,-,N/A,,Clear,0,2014-01-01 07:15:00
11:35 PM,32.0,8.6,38,30.22,10.0,East,3.5,-,N/A,,Clear,100,2014-01-01 07:35:00
11:55 PM,32.0,10.4,41,30.22,10.0,Calm,Calm,-,N/A,,Clear,0,2014-01-01 07:55:00